User: anonymous   Login
Location: Godiavel Galaoual
(15.2485°N, 12.6604°W)
Time: 02:35:11
(UTC+00:00)
Language:

RS-15 - Orbit

View from above orbital plane
View from above orbital plane
View from above satellite
View from above satellite

Ground track
Ground track

The orbit data is extracted from the following two-line orbital elements,

1 23439U 94085A   21216.59571123 -.00000037  00000-0  15882-3 0  9990
2 23439  64.8154 298.1001 0162395 326.7663  32.3144 11.27569967 95768
Epoch (UTC): 04 August 2021 14:17:49
Eccentricity: 0.0162395
inclination: 64.8154°
perigee height: 1886 km
apogee height: 2159 km
right ascension of ascending node: 298.1001°
argument of perigee: 326.7663°
revolutions per day: 11.27569967
mean anomaly at epoch: 32.3144°
orbit number at epoch: 9576

The dashed part of the orbit path shows where the satellite is in the earth's shadow,  

DLR